Flag for Germany Weather past 2 weeks in Solingen, North Rhine-Westphalia, Germany

Now
37 °F

Clear.


Feels Like: 34 °F
Forecast: 31 / 53 °F
Wind: 5 mph from Southwest

Location: Duesseldorf

Current Time: Mar 28, 2015 at 12:04:59 AM

Latest Report: Mar 27, 2015 at 11:20 PM


Visibility: 10 mi

Pressure: 30.21 "Hg

Humidity: 87%

Dew point: 34 °F

Location of SolingenLocation

Historic Weather in Solingen — Graph

°F

Solingen temperature yesterday

Maximum temperature yesterday: 50 °F (at 1:50 PM)
Minimum temperature yesterday: 37 °F (at 10:50 PM)
Average temperature yesterday: 45 °F

Past Weeks' High & Low Weather Summary

 TemperatureHumidityPressure
High64 °F (Mar 17, 1:50 PM)100% (Mar 20, 2:50 AM)30.39 "Hg (Mar 20, 2:50 AM)
Low28 °F (Mar 13, 6:50 AM)32% (Mar 17, 4:20 PM)29.65 "Hg (Mar 25, 1:20 AM)
Average43 °F77%30.12 "Hg
* Reported Mar 12 11:20 PM — Mar 27 11:20 PM, Solingen, Weather by CustomWeather, © 2015

Note: Actual official high and low records may vary slightly from our data, if they occured in-between our weather recording intervals... More about our weather records

Advertising

Solingen weather history for previous 24 hours

 ConditionsComfort  
Time TempWeatherWind HumidityBarometerVisibility
11:20 PM
Fri, Mar 27
37 °FClear.5 mph87%30.21 "Hg10 mi
10:50 PM37 °FClear.5 mph87%30.21 "Hg10 mi
10:20 PM39 °FPassing clouds.3 mph81%30.21 "HgN/A
9:50 PM43 °FClear.5 mph71%30.21 "Hg10 mi
9:20 PM43 °FClear.3 mph71%30.21 "Hg10 mi
8:50 PM43 °FClear.5 mph71%30.21 "Hg10 mi
8:20 PM45 °FClear.6 mph66%30.18 "Hg10 mi
7:50 PM46 °FPassing clouds.7 mph66%30.18 "HgN/A
7:20 PM46 °FPassing clouds.7 mph66%30.18 "HgN/A
6:50 PM46 °FPartly sunny.8 mph66%30.15 "HgN/A
6:20 PM48 °FPartly sunny.10 mph58%30.15 "HgN/A
5:50 PM48 °FPartly sunny.10 mph62%30.12 "HgN/A
5:20 PM48 °FPartly sunny.13 mph58%30.12 "HgN/A
4:50 PM48 °FPartly sunny.13 mph58%30.12 "HgN/A
4:20 PM48 °FPartly sunny.15 mph58%30.09 "HgN/A
3:50 PM50 °FPartly sunny.17 mph54%30.09 "HgN/A
3:20 PM48 °FPartly sunny.16 mph58%30.09 "HgN/A
2:50 PM50 °FPartly sunny.16 mph54%30.07 "HgN/A
2:20 PM50 °FBroken clouds.15 mph54%30.07 "HgN/A
1:50 PM50 °FBroken clouds.15 mph54%30.07 "HgN/A
1:20 PM48 °FBroken clouds.18 mph58%30.07 "HgN/A
12:50 PM48 °FBroken clouds.18 mph58%30.04 "HgN/A
12:20 PM46 °FBroken clouds.15 mph71%30.04 "HgN/A
11:50 AM46 °FPartly sunny.15 mph71%30.04 "HgN/A
11:20 AM45 °FLight rain. Partly sunny.18 mph76%30.04 "HgN/A
10:50 AM45 °FLight rain. Partly sunny.16 mph76%30.01 "HgN/A
10:20 AM45 °FBroken clouds.20 mph76%30.01 "HgN/A
9:50 AM45 °FBroken clouds.18 mph76%30.01 "HgN/A
9:20 AM45 °FBroken clouds.16 mph76%29.98 "HgN/A
8:50 AM45 °FScattered clouds.20 mph76%29.98 "HgN/A
8:20 AM43 °FPartly sunny.17 mph81%29.98 "HgN/A
7:50 AM43 °FPartly sunny.14 mph81%29.95 "HgN/A
7:20 AM43 °FBroken clouds.14 mph81%29.95 "HgN/A
6:50 AM43 °FBroken clouds.14 mph81%29.92 "HgN/A
6:20 AM43 °FBroken clouds.14 mph81%29.92 "HgN/A
5:50 AM43 °FPartly cloudy.13 mph81%29.89 "HgN/A
5:20 AM43 °FPassing clouds.10 mph81%29.89 "HgN/A
3:50 AM43 °FPassing clouds.12 mph81%29.86 "HgN/A
3:20 AM43 °FPassing clouds.10 mph81%29.83 "HgN/A
2:50 AM45 °FPassing clouds.13 mph76%29.83 "HgN/A
2:20 AM45 °FPassing clouds.13 mph81%29.83 "HgN/A
1:50 AM43 °FPassing clouds.10 mph87%29.83 "HgN/A
1:20 AM43 °FClear.8 mph93%29.80 "Hg10 mi
12:50 AM41 °FPassing clouds.7 mph93%29.80 "HgN/A
12:20 AM43 °FPassing clouds.7 mph93%29.80 "HgN/A
Weather by CustomWeather, © 2015

See weather overviewHow to use our weather pages